CAPE
0 0 0 0 0 0 0 0 0 5 42 23 26 35 0 12 5 0 210 6 143 317 401 227 231 385 382 274 126 0 6 199 389 504 854 600 360 294 270 225 153 130 129 90 1 1 2 0 0
0 0 0 0 0 0 0 0 0 14 161 241 101 95 72 60 216 194 271 187 150 453 450 265 411 433 275 115 0 0 169 513 791 725 457 282 188 133 105 97 54 4 0 0 0 0 0 0 0
0 0 0 0 0 0 0 0 0 229 290 231 177 109 67 22 386 397 335 314 318 318 395 450 528 430 212 61 0 110 605 670 377 264 205 36 0 0 0 0 0 0 0 0 0 0 0 0 0
0 0 0 0 0 0 0 0 0 469 521 371 481 267 180 455 441 389 369 405 269 197 227 609 517 428 193 30 111 604 572 473 399 189 4 0 0 0 0 0 0 0 0 0 0 0 0 0 0
0 0 0 0 0 0 0 0 72 404 438 308 373 217 221 490 508 578 312 197 60 79 275 456 550 405 67 281 677 649 456 208 112 0 0 0 0 0 0 0 0 0 0 0 0 0 0 0 0
0 0 0 0 0 0 0 0 22 183 531 505 433 310 343 566 677 589 317 85 36 101 314 387 546 110 298 780 789 506 190 27 4 0 0 0 0 0 0 0 0 0 0 0 0 0 0 0 0
0 0 0 0 0 0 0 0 78 691 783 664 478 377 355 515 731 707 388 97 64 162 276 413 255 229 769 770 478 221 44 0 0 0 0 0 0 0 0 0 0 0 0 0 0 0 0 0 0
0 0 0 0 0 0 0 106 244 628 761 697 424 175 163 469 558 425 249 157 151 234 298 408 126 220 400 570 257 27 0 0 0 0 0 0 0 0 0 0 0 0 0 0 0 0 0 0 0
0 0 0 0 0 0 0 0 334 369 434 587 485 437 487 477 560 279 145 99 138 416 487 336 137 420 390 326 60 0 0 0 0 0 0 0 0 0 0 0 0 0 0 0 0 0 0 0 0
0 0 0 0 0 0 0 0 0 5 122 237 374 691 626 696 530 195 112 80 87 238 463 378 395 379 352 36 0 0 0 0 0 0 0 0 0 0 0 0 0 0 0 0 0 0 0 0 0
0 0 0 0 0 0 0 0 0 0 0 142 210 661 932 830 551 268 183 242 231 315 330 292 472 481 222 0 0 0 0 0 0 0 0 0 0 0 0 0 0 0 0 0 0 0 0 0 0
0 0 0 0 0 0 0 0 0 0 0 188 321 918 1142 915 721 630 417 580 453 282 373 302 250 290 165 11 0 0 0 0 0 0 0 0 0 0 0 0 0 0 0 0 0 0 0 0 0
0 0 0 0 0 0 0 0 0 0 20 355 613 1098 1044 991 828 824 796 753 610 393 339 240 267 267 142 35 0 0 0 0 0 0 0 0 0 0 0 0 0 0 0 0 0 0 0 0 0
0 0 0 0 0 0 0 0 0 0 0 253 747 940 1135 993 871 963 914 833 710 533 298 253 261 278 179 69 0 0 0 0 0 0 0 0 0 0 0 0 0 0 0 0 0 0 0 0 0
0 0 0 0 0 0 0 0 0 0 1 203 427 1032 1139 1102 1041 913 821 749 652 554 363 311 327 303 194 75 9 0 0 0 0 0 0 0 0 0 0 0 0 0 0 0 0 0 0 0 0
0 0 0 0 0 0 0 0 0 0 51 230 544 722 972 1135 1125 1054 952 811 743 543 308 253 284 272 217 70 16 0 0 0 0 0 0 0 0 0 0 0 0 0 0 0 0 0 0 0 1
0 0 0 0 0 0 0 0 0 29 45 452 878 826 888 790 924 911 853 759 782 592 382 178 277 227 197 64 15 0 0 0 0 0 0 0 0 0 0 0 0 0 0 0 0 0 0 0 9
0 0 0 0 0 0 0 0 0 366 255 358 510 715 787 613 428 435 685 712 734 619 472 312 321 252 100 7 0 0 0 0 0 0 0 0 0 0 0 0 0 0 0 0 0 0 0 0 0
0 0 0 0 0 13 7 10 33 561 594 475 539 585 788 572 493 353 311 472 621 602 584 492 161 35 5 1 0 0 0 0 0 0 0 0 0 0 0 0 0 0 0 0 0 0 0 0 0
0 0 0 0 0 35 63 37 67 212 325 442 476 445 501 548 545 678 577 405 457 622 713 291 57 5 5 1 1 0 0 0 0 0 0 0 0 0 0 0 0 0 0 0 0 0 0 0 0
0 0 0 0 0 0 0 85 54 8 47 147 413 757 889 841 305 792 955 798 784 678 465 39 2 0 0 0 0 0 0 0 0 0 0 0 0 0 0 0 0 0 0 0 0 0 0 0 0
0 0 0 0 0 0 0 22 89 13 44 104 375 721 570 646 616 982 1212 1231 854 460 246 153 158 78 0 0 0 0 0 0 0 0 0 0 0 0 0 0 0 0 0 0 0 0 0 0 0
0 0 0 0 0 0 0 5 74 4 107 28 230 746 588 455 807 809 1079 818 663 518 440 303 295 103 1 0 0 2 0 2 0 0 0 0 0 0 0 0 0 0 0 0 0 0 0 0 0
0 0 0 0 0 0 0 2 23 42 55 18 294 746 812 608 805 736 721 793 823 821 741 604 359 165 2 0 1 2 0 0 0 0 0 0 0 0 0 0 0 0 0 0 0 0 0 0 0
0 0 0 0 0 0 0 0 17 15 43 90 255 780 1013 734 638 647 710 1005 1183 1237 591 524 226 141 2 1 3 0 0 0 0 0 0 0 0 0 0 0 0 0 0 0 0 0 0 0 0
0 0 0 0 0 0 0 28 39 2 34 82 96 923 1312 1109 837 725 718 1074 957 903 637 486 406 251 54 0 1 0 0 0 0 0 0 0 0 0 0 0 0 0 0 0 0 0 0 0 0
0 0 0 0 0 0 0 0 0 0 0 0 17 549 789 943 1205 1116 914 1064 1107 1021 935 746 583 506 313 22 1 1 0 0 0 0 0 0 0 0 0 0 0 0 0 0 0 0 0 0 0
0 0 0 0 0 0 0 0 0 0 0 0 8 237 388 386 845 1182 1080 1114 1109 1108 1091 847 665 427 193 96 4 5 2 0 0 0 0 0 0 0 0 0 0 0 0 0 0 0 0 0 0
0 0 0 0 0 0 0 0 0 0 0 0 4 207 388 141 98 670 895 886 975 976 937 753 555 378 233 126 9 1 1 0 0 0 0 0 0 0 0 0 0 0 0 0 0 0 0 0 0
0 0 0 0 0 0 0 0 0 0 0 0 0 47 161 107 111 221 265 339 387 468 617 764 628 555 455 143 6 0 0 0 0 0 0 0 0 0 0 0 0 0 0 0 0 0 0 0 0
CIN
-0 -0 -0 -0 -0 -0 -0 -0 -0 -41 -42 -122 -155 -74 -10 -88 -8 -0 -128 -26 -101 -40 -22 -41 -47 -24 -24 -49 -97 -0 -19 -64 -22 -10 -0 -10 -32 -44 -58 -90 -115 -127 -117 -120 -0 -0 -0 -0 -0
-0 -0 -0 -0 -0 -0 -0 -0 -0 -117 -90 -98 -131 -103 -83 -67 -94 -121 -96 -97 -85 -28 -28 -46 -38 -43 -70 -105 -0 -0 -87 -12 -3 -9 -38 -61 -115 -159 -185 -196 -161 -24 -0 -0 -0 -0 -0 -0 -0
-0 -0 -0 -0 -0 -0 -0 -0 -0 -105 -119 -116 -114 -149 -137 -147 -127 -104 -99 -91 -68 -47 -36 -34 -32 -50 -83 -110 -0 -130 -27 -13 -53 -96 -114 -210 -0 -0 -0 -0 -0 -0 -0 -0 -0 -0 -0 -0 -0
-0 -0 -0 -0 -0 -0 -0 -0 -0 -86 -109 -120 -102 -102 -178 -156 -137 -143 -123 -71 -64 -63 -49 -19 -28 -34 -66 -161 -141 -24 -27 -38 -55 -116 -20 -0 -0 -0 -0 -0 -0 -0 -0 -0 -0 -0 -0 -0 -0
-0 -0 -0 -0 -0 -0 -0 -0 -172 -103 -84 -100 -113 -115 -159 -169 -161 -138 -165 -155 -162 -112 -33 -27 -15 -28 -117 -52 -10 -22 -49 -126 -171 -0 -0 -0 -0 -0 -0 -0 -0 -0 -0 -0 -0 -0 -0 -0 -0
-0 -0 -0 -0 -0 -0 -0 -0 -186 -117 -103 -114 -128 -139 -165 -199 -158 -138 -158 -198 -207 -180 -50 -34 -27 -118 -65 -5 -9 -38 -136 -229 -86 -0 -0 -0 -0 -0 -0 -0 -0 -0 -0 -0 -0 -0 -0 -0 -0
-0 -0 -0 -0 -0 -0 -0 -0 -156 -88 -84 -86 -156 -104 -228 -222 -141 -123 -157 -232 -209 -127 -84 -26 -58 -84 -5 -10 -66 -140 -239 -0 -0 -0 -0 -0 -0 -0 -0 -0 -0 -0 -0 -0 -0 -0 -0 -0 -0
-0 -0 -0 -0 -0 -0 -0 -136 -143 -85 -72 -157 -174 -87 -142 -266 -254 -239 -251 -239 -190 -119 -87 -38 -115 -71 -44 -46 -146 -260 -0 -0 -0 -0 -0 -0 -0 -0 -0 -0 -0 -0 -0 -0 -0 -0 -0 -0 -0
-0 -0 -0 -0 -0 -0 -0 -0 -108 -155 -119 -166 -169 -177 -235 -368 -313 -353 -343 -331 -257 -123 -90 -101 -147 -51 -86 -123 -214 -0 -0 -0 -0 -0 -0 -0 -0 -0 -0 -0 -0 -0 -0 -0 -0 -0 -0 -0 -0
-0 -0 -0 -0 -0 -0 -0 -0 -0 -69 -166 -177 -175 -259 -328 -361 -376 -415 -407 -409 -379 -240 -134 -124 -105 -101 -113 -258 -0 -0 -0 -0 -0 -0 -0 -0 -0 -0 -0 -0 -0 -0 -0 -0 -0 -0 -0 -0 -0
-0 -0 -0 -0 -0 -0 -0 -0 -0 -0 -0 -128 -110 -202 -312 -326 -372 -376 -378 -332 -316 -230 -191 -196 -105 -80 -181 -0 -0 -0 -0 -0 -0 -0 -0 -0 -0 -0 -0 -0 -0 -0 -0 -0 -0 -0 -0 -0 -0
-0 -0 -0 -0 -0 -0 -0 -0 -0 -0 -0 -170 -148 -197 -296 -337 -346 -307 -310 -253 -244 -282 -223 -225 -208 -188 -258 -402 -0 -0 -0 -0 -0 -0 -0 -0 -0 -0 -0 -0 -0 -0 -0 -0 -0 -0 -0 -0 -0
-0 -0 -0 -0 -0 -0 -0 -0 -0 -0 -99 -229 -226 -263 -282 -294 -316 -295 -237 -234 -246 -277 -264 -281 -267 -245 -313 -430 -0 -0 -0 -0 -0 -0 -0 -0 -0 -0 -0 -0 -0 -0 -0 -0 -0 -0 -0 -0 -0
-0 -0 -0 -0 -0 -0 -0 -0 -0 -0 -0 -248 -264 -249 -286 -281 -271 -284 -267 -257 -251 -254 -323 -316 -328 -294 -342 -399 -0 -0 -0 -0 -0 -0 -0 -0 -0 -0 -0 -0 -0 -0 -0 -0 -0 -0 -0 -0 -0
-0 -0 -0 -0 -0 -0 -0 -0 -0 -0 -8 -181 -229 -259 -290 -291 -299 -275 -253 -246 -239 -254 -308 -306 -273 -281 -305 -358 -272 -0 -0 -0 -0 -0 -0 -0 -0 -0 -0 -0 -0 -0 -0 -0 -0 -0 -0 -0 -0
-0 -0 -0 -0 -0 -0 -0 -0 -0 -0 -198 -157 -173 -261 -281 -307 -292 -224 -210 -201 -207 -245 -304 -298 -264 -231 -186 -276 -365 -0 -0 -0 -0 -0 -0 -0 -0 -0 -0 -0 -0 -0 -0 -0 -0 -0 -0 -0 -0
-0 -0 -0 -0 -0 -0 -0 -0 -0 -190 -277 -161 -223 -265 -291 -367 -328 -262 -253 -245 -232 -248 -238 -277 -215 -172 -161 -253 -286 -0 -0 -0 -0 -0 -0 -0 -0 -0 -0 -0 -0 -0 -0 -0 -0 -0 -0 -0 -5
-0 -0 -0 -0 -0 -0 -0 -0 -0 -416 -376 -326 -292 -288 -313 -376 -406 -388 -283 -258 -248 -246 -242 -238 -195 -193 -266 -361 -0 -0 -0 -0 -0 -0 -0 -0 -0 -0 -0 -0 -0 -0 -0 -0 -0 -0 -0 -0 -0
-0 -0 -0 -0 -0 -184 -225 -219 -273 -339 -276 -195 -186 -204 -247 -359 -423 -429 -380 -307 -285 -291 -262 -224 -274 -345 -344 -0 -0 -0 -0 -0 -0 -0 -0 -0 -0 -0 -0 -0 -0 -0 -0 -0 -0 -0 -0 -0 -0
-0 -0 -0 -0 -0 -98 -120 -165 -223 -241 -239 -255 -261 -267 -254 -294 -384 -395 -410 -392 -352 -321 -272 -326 -425 -0 -0 -0 -0 -0 -0 -0 -0 -0 -0 -0 -0 -0 -0 -0 -0 -0 -0 -0 -0 -0 -0 -0 -0
-0 -0 -0 -0 -0 -0 -0 -88 -159 -266 -274 -276 -272 -294 -296 -325 -416 -399 -358 -350 -322 -334 -317 -514 -0 -0 -0 -0 -0 -0 -0 -0 -0 -0 -0 -0 -0 -0 -0 -0 -0 -0 -0 -0 -0 -0 -0 -0 -0
-0 -0 -0 -0 -0 -0 -0 -47 -80 -201 -182 -202 -224 -255 -350 -405 -489 -379 -289 -252 -315 -434 -504 -467 -342 -409 -0 -0 -0 -0 -0 -0 -0 -0 -0 -0 -0 -0 -0 -0 -0 -0 -0 -0 -0 -0 -0 -0 -0
-0 -0 -0 -0 -0 -0 -0 -13 -49 -158 -75 -157 -232 -213 -347 -448 -377 -354 -264 -335 -345 -379 -388 -394 -343 -178 -491 -0 -0 -0 -0 -0 -0 -0 -0 -0 -0 -0 -0 -0 -0 -0 -0 -0 -0 -0 -0 -0 -0
-0 -0 -0 -0 -0 -0 -0 -40 -24 -52 -100 -156 -179 -193 -279 -375 -305 -319 -293 -240 -195 -161 -155 -182 -208 -287 -85 -0 -0 -0 -0 -0 -0 -0 -0 -0 -0 -0 -0 -0 -0 -0 -0 -0 -0 -0 -0 -0 -0
-0 -0 -0 -0 -0 -0 -0 -0 -51 -96 -109 -156 -198 -165 -201 -305 -316 -286 -240 -138 -65 -23 -151 -155 -245 -232 -78 -0 -0 -0 -0 -0 -0 -0 -0 -0 -0 -0 -0 -0 -0 -0 -0 -0 -0 -0 -0 -0 -0
-0 -0 -0 -0 -0 -0 -0 -13 -24 -40 -118 -142 -241 -174 -163 -208 -262 -257 -226 -98 -70 -61 -96 -122 -140 -165 -281 -0 -0 -0 -0 -0 -0 -0 -0 -0 -0 -0 -0 -0 -0 -0 -0 -0 -0 -0 -0 -0 -0
-0 -0 -0 -0 -0 -0 -0 -0 -0 -0 -0 -0 -155 -152 -169 -221 -180 -168 -177 -108 -67 -43 -45 -76 -83 -68 -115 -358 -0 -0 -0 -0 -0 -0 -0 -0 -0 -0 -0 -0 -0 -0 -0 -0 -0 -0 -0 -0 -0
-0 -0 -0 -0 -0 -0 -0 -0 -0 -0 -0 -0 -140 -95 -181 -250 -211 -159 -161 -132 -112 -87 -48 -66 -94 -131 -232 -293 -0 -0 -0 -0 -0 -0 -0 -0 -0 -0 -0 -0 -0 -0 -0 -0 -0 -0 -0 -0 -0
-0 -0 -0 -0 -0 -0 -0 -0 -0 -0 -0 -0 -149 -92 -137 -226 -329 -230 -185 -193 -155 -133 -133 -132 -142 -181 -229 -235 -222 -0 -0 -0 -0 -0 -0 -0 -0 -0 -0 -0 -0 -0 -0 -0 -0 -0 -0 -0 -0
-0 -0 -0 -0 -0 -0 -0 -0 -0 -0 -0 -0 -0 -156 -184 -250 -296 -308 -296 -289 -266 -242 -216 -172 -179 -159 -148 -277 -307 -0 -0 -0 -0 -0 -0 -0 -0 -0 -0 -0 -0 -0 -0 -0 -0 -0 -0 -0 -0
Wind_Speed
12 13 15 17 17 18 19 19 16 16 16 18 19 17 17 16 14 14 15 22 21 17 15 14 13 12 12 12 13 14 14 15 15 16 17 17 18 19 20 20 21 22 22 23 23 23 23 23 23
10 13 16 16 16 17 18 17 16 15 15 17 18 17 19 18 16 15 17 22 21 18 16 15 15 13 13 12 13 14 14 15 16 16 16 17 18 19 20 21 22 22 23 23 24 24 24 24 24
11 14 15 15 15 17 18 17 15 15 15 17 17 17 18 18 16 16 18 21 20 19 17 17 16 14 13 13 13 13 14 15 15 15 16 17 18 19 20 21 22 23 23 24 24 24 24 24 24
10 13 14 12 15 13 16 19 14 15 16 16 17 18 18 14 17 20 20 21 19 18 18 17 16 14 13 13 14 14 13 14 15 15 16 17 18 20 21 22 23 23 24 25 25 25 25 24 24
12 12 12 12 14 14 11 15 12 12 13 13 14 17 18 17 19 20 21 21 20 19 18 17 15 13 13 12 13 13 13 14 14 15 15 17 18 20 21 22 23 24 25 25 25 25 25 25 24
10 11 11 12 13 15 14 12 10 11 11 13 14 15 16 17 19 21 21 20 19 18 17 16 15 13 13 12 10 11 12 13 14 14 15 16 18 20 21 22 23 24 26 27 26 25 24 25 24
9 8 9 11 13 16 18 14 10 10 10 11 15 15 15 16 18 20 20 19 17 16 14 13 13 12 12 10 11 11 12 13 14 14 16 17 18 19 20 21 23 25 26 26 24 24 24 25 24
11 10 7 9 11 15 16 15 12 10 10 13 13 15 15 13 17 19 19 17 16 15 13 12 11 11 11 11 11 12 13 13 14 15 16 18 19 19 20 21 23 25 26 25 24 24 24 25 24
10 8 6 8 9 12 17 16 13 13 9 10 11 14 15 18 17 17 18 17 15 15 14 13 12 12 11 11 11 11 12 14 13 15 16 17 17 18 20 22 23 25 24 23 23 24 25 24 24
9 7 5 9 9 12 15 11 13 11 9 13 10 14 15 16 15 15 15 15 17 16 16 16 15 15 12 10 10 11 12 13 14 15 15 16 17 18 20 22 23 24 23 23 23 24 25 26 25
9 7 6 7 6 7 13 19 10 9 9 12 8 9 11 12 13 13 13 16 17 18 17 18 17 15 14 12 11 10 11 13 14 15 16 16 16 17 19 21 23 22 22 21 22 23 25 26 25
11 8 6 11 6 10 9 21 21 12 11 12 9 8 9 11 12 13 15 15 14 17 18 18 19 16 14 12 10 10 11 13 14 15 15 14 16 17 20 21 22 22 20 20 21 22 24 25 26
11 12 8 7 9 8 16 12 25 22 14 11 10 7 7 10 12 15 16 15 16 17 19 19 18 16 14 10 9 9 10 13 14 15 16 14 15 16 18 19 20 20 19 19 19 20 22 24 25
13 14 12 11 11 10 10 16 13 17 7 6 7 6 8 12 13 13 14 14 16 17 18 18 18 15 12 8 8 8 10 12 14 16 15 16 16 17 17 18 19 18 18 18 17 18 20 21 22
16 17 15 10 11 12 6 9 4 24 19 8 5 6 6 10 12 12 13 14 16 16 16 16 14 12 10 8 6 7 9 11 13 15 15 16 17 17 17 18 18 18 17 17 17 17 17 19 20
15 14 14 15 17 13 8 10 15 25 7 5 4 4 6 8 10 10 9 14 14 12 12 13 10 6 3 2 3 5 7 10 12 14 14 15 16 17 18 19 19 17 16 15 16 16 16 17 17
15 13 14 15 19 15 13 17 27 23 3 3 5 6 6 10 9 4 17 13 12 9 9 8 4 3 4 8 9 9 9 11 13 14 14 15 16 17 19 19 19 17 15 15 15 16 15 15 15
14 14 15 16 18 20 18 22 22 17 13 14 17 15 15 12 13 8 24 9 5 4 4 4 4 4 8 12 14 14 15 15 14 14 15 15 16 17 19 19 18 17 16 15 15 16 17 16 14
14 14 15 17 15 19 20 22 24 18 15 17 21 17 24 19 19 16 5 2 3 2 2 2 4 7 9 13 15 14 15 16 19 17 15 15 15 16 18 18 18 18 17 15 14 15 17 17 14
14 15 13 15 14 17 20 21 22 22 19 19 21 25 27 22 18 16 11 3 3 3 5 8 8 10 13 16 20 19 16 17 17 18 16 14 14 16 18 17 18 18 17 17 15 15 16 18 13
15 14 14 14 14 16 16 19 20 19 20 21 23 25 25 27 2 8 9 12 9 7 7 7 8 11 20 22 18 19 17 18 19 17 14 12 13 15 16 17 17 17 17 17 16 16 16 17 16
16 13 15 15 14 18 19 16 17 19 20 22 26 28 29 28 21 14 12 9 10 8 6 4 3 4 14 5 4 1 9 8 18 14 13 11 11 13 15 16 16 18 18 17 16 16 16 17 17
14 15 16 18 17 15 19 15 14 18 21 25 27 29 30 28 22 16 11 10 9 5 2 2 1 4 8 5 4 7 5 3 14 2 4 8 10 11 13 14 15 17 18 17 17 16 16 17 17
14 15 17 18 15 13 19 17 15 18 21 24 26 27 26 24 23 21 17 12 9 7 7 5 7 7 7 7 5 8 10 9 2 1 3 5 7 9 11 13 14 15 16 15 16 16 17 17 17
14 14 11 13 15 15 16 16 16 15 18 22 26 26 24 22 21 20 17 14 13 10 12 10 10 9 6 7 4 7 8 12 11 5 4 3 4 7 8 10 12 13 14 15 15 15 16 16 16
16 15 12 9 10 11 16 15 16 12 15 19 22 23 22 21 20 19 17 15 14 11 13 8 7 5 4 6 4 4 6 8 4 2 4 2 3 5 6 8 10 11 12 14 14 14 15 16 16
13 15 14 13 13 8 12 12 10 11 11 16 20 20 21 21 20 19 17 14 16 12 13 7 5 5 6 5 5 3 3 5 7 5 4 0 2 4 6 6 9 10 11 12 13 13 13 14 15
15 13 15 14 11 9 10 8 9 11 9 10 15 18 20 20 21 20 19 18 16 15 15 12 10 11 11 7 7 6 3 1 3 6 5 2 1 2 3 6 9 10 10 11 11 13 12 11 12
16 14 18 17 18 18 11 8 10 9 9 8 10 14 18 19 20 20 20 20 19 20 20 18 15 14 13 10 9 7 5 2 2 4 5 5 3 2 3 6 8 10 12 10 11 9 12 12 12
15 15 16 21 21 19 21 17 14 12 11 10 11 12 16 19 19 20 22 23 24 24 23 22 19 18 14 10 9 7 5 2 1 3 3 4 5 3 3 7 7 10 10 10 8 9 10 8 10
Wind_Direction
40 37 17 18 20 23 10 31 65 72 86 67 60 70 70 62 102 34 151 133 114 103 96 91 82 71 56 47 44 41 37 37 39 40 36 27 22 16 17 15 13 14 13 12 10 8 6 3 360
28 10 5 17 7 4 7 48 70 78 83 60 78 59 43 41 36 33 76 123 113 102 98 95 92 79 68 55 52 49 44 44 44 38 28 20 21 19 18 16 18 17 15 12 8 7 5 0 354
1 344 359 9 21 10 14 31 45 52 54 63 53 57 48 48 68 80 125 110 110 105 101 100 96 84 68 60 55 51 51 45 36 30 23 19 18 16 15 18 19 18 15 11 9 5 2 0 357
1 354 353 9 5 54 38 19 52 64 61 71 55 33 54 104 80 116 100 107 105 103 102 97 92 79 71 66 62 58 45 37 35 29 29 23 17 15 13 12 10 8 2 358 358 358 356 356 356
332 343 358 8 358 14 49 27 71 81 50 50 56 33 37 90 91 101 106 108 109 105 103 100 91 77 68 62 62 55 46 37 32 30 32 21 14 9 5 2 0 359 360 358 358 0 1 359 1
337 335 354 0 11 7 16 18 65 92 65 57 52 50 47 79 88 107 114 112 110 107 106 99 92 84 76 70 48 42 38 38 37 28 21 13 9 8 5 5 2 4 356 355 358 5 8 9 10
347 356 355 357 11 7 351 3 43 48 60 66 65 57 42 94 101 107 113 111 107 105 99 92 87 81 73 60 55 43 44 43 39 31 20 10 8 14 14 11 4 3 359 1 9 9 13 11 10
342 351 18 27 34 19 15 13 11 36 65 60 71 43 24 91 101 104 108 105 106 105 99 89 80 82 80 71 62 63 51 41 35 27 17 14 12 19 17 14 5 2 5 16 15 18 14 10 17
353 6 26 22 51 35 17 19 21 357 52 64 48 51 69 100 102 98 108 109 108 114 110 102 99 97 87 78 70 58 42 29 36 24 14 9 10 10 6 5 3 3 14 20 20 19 16 23 25
29 8 21 16 41 24 11 62 32 46 90 136 68 22 69 98 107 107 108 112 129 127 123 121 117 114 97 79 70 53 36 26 26 18 12 4 1 1 360 359 3 7 17 18 19 20 20 22 21
25 19 21 30 75 55 1 233 44 104 110 146 122 76 82 96 112 113 119 126 131 133 130 133 128 121 115 96 85 61 44 32 33 25 18 8 5 356 353 355 357 6 12 18 19 20 19 20 23
7 14 358 338 20 360 15 300 293 162 148 10 90 96 92 111 120 123 131 125 119 133 139 138 139 132 124 102 91 65 53 40 36 34 28 22 6 357 343 347 353 1 10 18 18 25 26 27 27
18 4 1 360 343 341 323 340 254 229 173 0 21 54 95 118 130 138 136 128 129 138 142 147 143 138 128 108 88 66 48 38 37 42 51 47 17 2 345 349 358 5 12 12 26 33 33 30 27
13 355 350 342 337 332 337 326 335 282 138 42 10 57 109 143 144 134 138 135 141 143 147 146 149 143 130 109 97 77 60 40 32 33 57 67 63 32 13 12 9 7 6 21 39 39 34 31 32
352 349 348 5 354 339 357 347 17 302 309 119 68 77 111 153 149 148 146 144 145 145 146 149 148 144 137 119 94 71 53 38 30 34 42 42 38 32 22 17 9 8 16 31 39 38 42 39 36
358 6 9 6 357 357 357 332 345 309 7 123 106 67 119 142 154 156 137 148 147 143 146 151 147 142 132 42 27 21 24 28 25 20 26 27 22 21 12 10 6 13 24 36 34 39 41 40 41
3 7 357 360 1 6 355 326 310 320 1 140 4 358 13 357 334 303 173 160 157 147 146 150 157 295 299 309 319 327 343 354 4 10 7 11 14 13 6 4 4 11 26 29 34 27 31 32 38
13 5 353 354 352 4 357 337 330 340 344 332 320 318 327 339 322 323 252 166 165 165 168 156 167 269 292 299 307 313 315 328 350 359 354 356 359 8 6 3 8 18 25 30 27 24 21 23 28
15 5 354 347 3 355 358 359 352 358 0 349 310 211 294 314 308 309 319 247 215 219 202 263 308 314 303 300 301 303 309 314 310 332 351 343 352 2 5 3 5 9 17 21 26 23 17 15 24
9 358 357 1 26 2 3 3 6 11 11 353 301 283 286 309 311 305 308 287 267 288 316 310 320 325 323 316 300 298 297 304 310 310 328 351 358 6 9 13 8 8 11 13 18 18 11 9 21
21 8 358 353 356 355 355 355 354 6 6 353 341 328 310 293 354 324 313 299 307 318 322 332 343 357 332 329 313 300 295 296 293 302 320 348 5 11 10 8 11 9 4 5 11 15 13 9 11
63 31 4 3 357 338 338 341 354 344 350 346 340 338 334 327 335 330 323 324 311 317 322 325 332 2 337 14 4 345 283 304 263 293 312 346 2 7 12 16 13 6 1 5 10 17 17 14 14
64 35 15 345 347 354 345 347 354 347 347 344 341 342 352 3 15 6 352 337 331 332 326 344 319 319 350 79 109 143 115 284 278 318 344 343 4 10 7 14 13 10 8 9 12 16 17 14 9
65 44 27 16 9 6 344 348 357 346 343 340 342 344 356 9 18 24 29 34 46 24 25 26 29 36 51 62 66 142 131 134 312 18 98 358 14 28 12 12 14 12 12 17 13 12 14 13 14
71 58 77 77 50 28 10 0 358 4 1 355 344 348 1 15 16 20 38 46 36 53 2 359 359 3 44 30 87 150 147 158 155 143 135 82 36 41 31 12 12 13 19 20 21 15 13 12 11
27 40 73 134 109 68 20 22 2 43 29 17 10 14 13 18 23 22 25 25 26 30 17 29 20 38 38 22 51 145 161 165 178 190 154 101 9 19 37 32 8 8 16 17 24 20 14 12 12
39 20 30 38 43 97 61 58 69 48 61 37 21 28 27 29 27 42 42 54 28 36 21 48 53 27 21 25 32 91 165 195 182 184 179 273 20 30 351 12 358 1 10 16 23 26 20 13 11
6 27 6 15 42 67 67 94 98 74 100 83 48 40 37 36 33 34 36 38 38 37 37 39 41 21 14 35 16 3 350 214 193 178 195 206 302 327 358 338 339 348 356 4 15 13 18 18 20
353 354 333 338 330 332 13 43 44 49 55 92 68 39 20 24 23 27 28 29 27 21 17 19 22 22 17 12 9 11 28 70 163 197 200 211 194 221 303 315 328 333 339 352 353 11 9 1 8
345 351 346 323 323 324 322 339 1 17 31 32 22 21 4 2 3 4 358 359 2 1 2 3 7 10 18 30 34 34 26 21 231 236 233 214 219 220 242 295 312 320 334 346 350 353 356 1 358